IK2ILW-4 Weather Reports


time (UTC)temp
F
wind
direction
speed
knots
gust
knots
rain 1hr
in
rain 24hr
in
rain mn
in
humidity
%
barometer
mb
20260902184754 66 359 0.0 0.0 0.00 0.00 0.00 74 1023.8
20260902184251 66 359 0.0 0.0 0.00 0.00 0.00 74 1023.5
20260902183747 66 359 0.0 0.0 0.00 0.00 0.00 74 1023.5
20260902183254 66 359 0.0 0.0 0.00 0.00 0.00 74 1023.5
20260902182749 66 302 0.0 0.0 0.00 0.00 0.00 74 1023.3
20260902182246 66 302 0.0 0.0 0.00 0.00 0.00 73 1023.3
20260902181753 67 302 0.0 0.0 0.00 0.00 0.00 73 1023.3
20260902181244 67 302 0.0 0.0 0.00 0.00 0.00 73 1023.4
20260902180739 67 302 0.0 0.0 0.00 0.00 0.00 73 1023.4
20260902180233 67 302 0.0 0.0 0.00 0.00 0.00 73 1023.4
20260902175752 67 301 0.0 0.0 0.00 0.00 0.00 73 1023.4
20260902175243 67 302 0.0 0.0 0.00 0.00 0.00 72 1023.4
20260902174753 68 300 0.0 0.0 0.00 0.00 0.00 72 1023.4
20260902174245 68 293 0.0 0.0 0.00 0.00 0.00 72 1023.3
20260902173744 68 335 0.0 0.0 0.00 0.00 0.00 71 1023.3
20260902173253 69 295 0.0 0.0 0.00 0.00 0.00 71 1023.3
20260902172743 68 296 0.0 0.0 0.00 0.00 0.00 71 1023.3
20260902172239 69 302 0.0 0.0 0.00 0.00 0.00 70 1023.3
20260902171752 69 299 0.0 0.0 0.00 0.00 0.00 71 1023.3
20260902171250 69 276 0.0 0.0 0.00 0.00 0.00 70 1023.4
20260902170745 69 297 0.0 0.0 0.00 0.00 0.00 69 1023.4
20260902170235 70 305 0.0 0.0 0.00 0.00 0.00 69 1023.4
20260902165753 70 290 0.0 0.0 0.00 0.00 0.00 69 1023.3
20260902165251 70 258 0.0 0.0 0.00 0.00 0.00 69 1023.3
20260902164754 70 252 0.0 0.0 0.00 0.00 0.00 68 1023.3
20260902164251 70 265 0.0 0.0 0.00 0.00 0.00 68 1023.2
20260902163749 70 266 0.0 0.0 0.00 0.00 0.00 67 1023.2
20260902163253 71 288 0.0 0.0 0.00 0.00 0.00 67 1023.2
20260902162739 71 277 0.0 0.0 0.00 0.00 0.00 66 1023.1
20260902162238 72 261 0.0 0.0 0.00 0.00 0.00 65 1023.1
20260902161736 73 205 0.0 0.0 0.00 0.00 0.00 63 1023.1
20260902161250 73 277 0.0 0.0 0.00 0.00 0.00 63 1023.1
20260902160744 72 254 0.0 0.0 0.00 0.00 0.00 63 1023.1
20260902160252 73 273 0.0 0.0 0.00 0.00 0.00 64 1023.1
20260902155734 73 262 0.0 0.0 0.00 0.00 0.00 64 1023.1
20260902155245 73 257 0.0 0.0 0.00 0.00 0.00 62 1023.1
20260902154752 73 250 0.0 0.0 0.00 0.00 0.00 63 1023.1
20260902154242 73 256 0.0 0.0 0.00 0.00 0.00 62 1023.2
20260902153741 73 274 0.0 0.0 0.00 0.00 0.00 61 1023.2
20260902153246 74 259 0.0 0.0 0.00 0.00 0.00 60 1023.2
20260902152753 74 264 0.0 0.0 0.00 0.00 0.00 59 1023.2
20260902152244 74 226 0.0 0.0 0.00 0.00 0.00 61 1023.2
20260902151733 73 251 0.0 0.0 0.00 0.00 0.00 62 1023.2
20260902151251 73 257 0.0 0.0 0.00 0.00 0.00 63 1023.2
20260902150735 73 276 0.0 0.0 0.00 0.00 0.00 62 1023.2
20260902150236 73 248 0.0 0.0 0.00 0.00 0.00 61 1023.2
20260902145751 73 258 0.0 0.0 0.00 0.00 0.00 63 1023.3
20260902145243 73 271 0.0 0.0 0.00 0.00 0.00 61 1023.3
20260902144750 73 285 0.0 0.0 0.00 0.00 0.00 60 1023.3
20260902144235 73 241 0.0 0.0 0.00 0.00 0.00 61 1023.3
20260902143747 73 272 0.0 0.0 0.00 0.00 0.00 60 1023.3
20260902143253 73 240 0.0 0.0 0.00 0.00 0.00 62 1023.3
20260902142750 73 250 0.0 0.0 0.00 0.00 0.00 62 1023.6
20260902142237 72 261 0.0 0.0 0.00 0.00 0.00 63 1023.6
20260902141737 72 307 0.0 0.0 0.00 0.00 0.00 62 1023.6
20260902141252 73 256 0.0 0.0 0.00 0.00 0.00 64 1023.7
20260902140743 73 255 0.0 0.0 0.00 0.00 0.00 62 1023.7
20260902140249 72 258 0.0 0.0 0.00 0.00 0.00 64 1023.7
20260902135740 72 243 0.0 0.0 0.00 0.00 0.00 64 1023.7
20260902135236 73 248 0.0 0.0 0.00 0.00 0.00 64 1023.7
20260902134733 73 249 0.0 0.0 0.00 0.00 0.00 63 1023.7
20260902134249 72 247 0.0 0.0 0.00 0.00 0.00 64 1023.7
20260902133752 72 277 0.0 0.0 0.00 0.00 0.00 62 1023.7
20260902133255 72 245 0.0 0.0 0.00 0.00 0.00 61 1023.7
20260902132751 72 244 0.0 0.0 0.00 0.00 0.00 62 1023.9
20260902132234 72 255 0.0 0.0 0.00 0.00 0.00 65 1023.9
20260902131739 71 300 0.0 0.0 0.00 0.00 0.00 66 1023.9
20260902131237 71 260 0.0 0.0 0.00 0.00 0.00 65 1023.9
20260902130734 71 275 0.0 0.0 0.00 0.00 0.00 66 1023.9
20260902130232 71 278 0.0 0.0 0.00 0.00 0.00 65 1023.9
20260902125752 71 225 0.0 0.0 0.00 0.00 0.00 66 1024.1
20260902125236 72 264 0.0 0.0 0.00 0.00 0.00 64 1024.1
20260902124737 71 269 0.0 0.0 0.00 0.00 0.00 67 1024.1
20260902124252 71 278 0.0 0.0 0.00 0.00 0.00 65 1024.2
20260902123743 71 236 0.0 0.0 0.00 0.00 0.00 66 1024.2
20260902123253 72 281 0.0 0.0 0.00 0.00 0.00 66 1024.2
20260902122744 72 270 0.0 0.0 0.00 0.00 0.00 65 1024.3
20260902122243 71 195 0.0 0.0 0.00 0.00 0.00 67 1024.3
20260902121750 71 259 0.0 0.0 0.00 0.00 0.00 67 1024.3
20260902121252 70 252 0.0 0.0 0.00 0.00 0.00 70 1024.4
20260902120741 69 211 0.0 0.0 0.00 0.00 0.00 69 1024.4
20260902120248 69 269 0.0 0.0 0.00 0.00 0.00 70 1024.4
20260902115733 69 255 0.0 0.0 0.00 0.00 0.00 71 1024.3
20260902115242 69 243 0.0 0.0 0.00 0.00 0.00 71 1024.3
20260902114750 69 252 0.0 0.0 0.00 0.00 0.00 71 1024.3
20260902114242 69 255 0.0 0.0 0.00 0.00 0.00 69 1024.4
20260902113738 69 246 0.0 0.0 0.00 0.00 0.00 68 1024.4
20260902113248 69 254 0.0 0.0 0.00 0.00 0.00 67 1024.4
20260902112742 69 221 0.0 0.0 0.00 0.00 0.00 68 1024.5
20260902112239 69 240 0.0 0.0 0.00 0.00 0.00 68 1024.5
20260902111736 69 232 0.0 0.0 0.00 0.00 0.00 66 1024.5
20260902111252 70 242 0.0 0.0 0.00 0.00 0.00 66 1024.6
20260902110751 70 282 0.0 0.0 0.00 0.00 0.00 69 1024.6
20260902110237 69 265 0.0 0.0 0.00 0.00 0.00 68 1024.6
20260902105739 69 207 0.0 0.0 0.00 0.00 0.00 67 1024.9
20260902105238 69 226 0.0 0.0 0.00 0.00 0.00 68 1024.9
20260902104736 69 169 0.0 0.0 0.00 0.00 0.00 68 1024.9
20260902104249 68 236 0.0 0.0 0.00 0.00 0.00 72 1024.9
20260902103744 67 238 0.0 0.0 0.00 0.00 0.00 75 1024.9
20260902103251 68 108 0.0 0.0 0.00 0.00 0.00 75 1024.9
20260902102748 68 142 0.0 0.0 0.00 0.00 0.00 74 1024.9
20260902102245 68 125 0.0 0.0 0.00 0.00 0.00 73 1024.9
20260902101732 69 126 0.0 0.0 0.00 0.00 0.00 72 1024.9
20260902101253 70 127 0.0 0.0 0.00 0.00 0.00 70 1025.1
20260902100747 70 146 0.0 0.0 0.00 0.00 0.00 70 1025.1
20260902100254 69 193 0.0 0.0 0.00 0.00 0.00 72 1025.1
20260902095740 69 186 0.0 0.0 0.00 0.00 0.00 70 1024.9
20260902095237 69 167 0.0 0.0 0.00 0.00 0.00 72 1024.9
20260902094734 69 247 0.0 0.0 0.00 0.00 0.00 74 1024.9
20260902094232 68 244 0.0 0.0 0.00 0.00 0.00 74 1025.1
20260902093747 68 225 0.0 0.0 0.00 0.00 0.00 75 1025.1
20260902093253 68 226 0.0 0.0 0.00 0.00 0.00 76 1025.1
20260902092737 67 229 0.0 0.0 0.00 0.00 0.00 77 1025.2
20260902092236 67 242 0.0 0.0 0.00 0.00 0.00 77 1025.2
20260902091744 66 242 0.0 0.0 0.00 0.00 0.00 78 1025.2
20260902091234 65 242 0.0 0.0 0.00 0.00 0.00 79 1025.3
20260902090752 65 242 0.0 0.0 0.00 0.00 0.00 80 1025.3
20260902090236 65 242 0.0 0.0 0.00 0.00 0.00 80 1025.3
20260902085747 66 242 0.0 0.0 0.00 0.00 0.00 79 1025.3
20260902085245 66 247 0.0 0.0 0.00 0.00 0.00 79 1025.3
20260902084754 66 240 0.0 0.0 0.00 0.00 0.00 80 1025.3
20260902084250 65 153 0.0 0.0 0.00 0.00 0.00 81 1025.2
20260902083748 64 96 0.0 0.0 0.00 0.00 0.00 81 1025.2
20260902083233 64 96 0.0 0.0 0.00 0.00 0.00 80 1025.2
20260902082749 65 96 0.0 0.0 0.00 0.00 0.00 82 1025.1
20260902082236 64 96 0.0 0.0 0.00 0.00 0.00 80 1025.1
20260902081744 65 275 0.0 0.0 0.00 0.00 0.00 79 1025.1
20260902081233 65 276 0.0 0.0 0.00 0.00 0.00 78 1024.9
20260902080748 66 276 0.0 0.0 0.00 0.00 0.00 76 1024.9
20260902080234 67 276 0.0 0.0 0.00 0.00 0.00 78 1024.9
20260902075749 66 276 0.0 0.0 0.00 0.00 0.00 77 1025.0
20260902075249 66 276 0.0 0.0 0.00 0.00 0.00 78 1025.0
20260902074754 66 276 0.0 0.0 0.00 0.00 0.00 78 1025.0
20260902074240 66 276 0.0 0.0 0.00 0.00 0.00 78 1024.9
20260902073735 66 322 0.0 0.0 0.00 0.00 0.00 78 1024.9
20260902073246 65 322 0.0 0.0 0.00 0.00 0.00 79 1024.9
20260902072735 65 323 0.0 0.0 0.00 0.00 0.00 79 1025.0
20260902072251 65 323 0.0 0.0 0.00 0.00 0.00 80 1025.0
20260902071735 64 322 0.0 0.0 0.00 0.00 0.00 80 1025.0
20260902071247 64 322 0.0 0.0 0.00 0.00 0.00 80 1024.8
20260902070744 64 322 0.0 0.0 0.00 0.00 0.00 80 1024.8
20260902070235 64 297 0.0 0.0 0.00 0.00 0.00 80 1024.8
20260902065745 64 295 0.0 0.0 0.00 0.00 0.00 79 1024.6
20260902065242 64 295 0.0 0.0 0.00 0.00 0.00 80 1024.6
20260902064748 64 295 0.0 0.0 0.00 0.00 0.00 80 1024.6
20260902064235 64 295 0.0 0.0 0.00 0.00 0.00 81 1024.6
20260902063744 63 295 0.0 0.0 0.00 0.00 0.00 82 1024.6
20260902063234 63 295 0.0 0.0 0.00 0.00 0.00 82 1024.6
20260902062749 63 295 0.0 0.0 0.00 0.00 0.00 82 1024.7
20260902062247 63 295 0.0 0.0 0.00 0.00 0.00 83 1024.7
20260902061754 62 295 0.0 0.0 0.00 0.00 0.00 84 1024.7
20260902061250 62 292 0.0 0.0 0.00 0.00 0.00 85 1024.8
20260902060747 61 292 0.0 0.0 0.00 0.00 0.00 84 1024.8
20260902060252 61 292 0.0 0.0 0.00 0.00 0.00 85 1024.8
20260902055736 61 271 0.0 0.0 0.00 0.00 0.00 85 1024.7
20260902055236 61 271 0.0 0.0 0.00 0.00 0.00 86 1024.7
20260902054742 61 271 0.0 0.0 0.00 0.00 0.00 85 1024.7
20260902054241 61 271 0.0 0.0 0.00 0.00 0.00 85 1024.6
20260902053736 61 271 0.0 0.0 0.00 0.00 0.00 85 1024.6
20260902053236 61 271 0.0 0.0 0.00 0.00 0.00 85 1024.6
20260902052748 61 271 0.0 0.0 0.00 0.00 0.00 85 1024.5
20260902052245 61 271 0.0 0.0 0.00 0.00 0.00 85 1024.5
20260902051735 61 271 0.0 0.0 0.00 0.00 0.00 85 1024.5
20260902051248 61 271 0.0 0.0 0.00 0.00 0.00 85 1024.3
20260902050744 61 271 0.0 0.0 0.00 0.00 0.00 85 1024.3
20260902050251 61 271 0.0 0.0 0.00 0.00 0.00 85 1024.3
20260902045752 61 271 0.0 0.0 0.00 0.00 0.00 84 1024.2
20260902045241 61 271 0.0 0.0 0.00 0.00 0.00 85 1024.2
20260902044748 61 271 0.0 0.0 0.00 0.00 0.00 84 1024.2
20260902044239 61 271 0.0 0.0 0.00 0.00 0.00 84 1024.1
20260902043734 61 290 0.0 0.0 0.00 0.00 0.00 84 1024.1
20260902043247 61 290 0.0 0.0 0.00 0.00 0.00 84 1024.1
20260902042742 61 290 0.0 0.0 0.00 0.00 0.00 84 1024.0
20260902035242 61 290 0.0 0.0 0.00 0.00 0.00 84 1024.0
20260902034750 61 290 0.0 0.0 0.00 0.00 0.00 84 1024.0
20260902034242 62 290 0.0 0.0 0.00 0.00 0.00 84 1024.1
20260902033739 62 290 0.0 0.0 0.00 0.00 0.00 84 1024.1
20260902033235 61 290 0.0 0.0 0.00 0.00 0.00 84 1024.1
20260902032751 61 290 0.0 0.0 0.00 0.00 0.00 83 1024.2
20260902032239 61 290 0.0 0.0 0.00 0.00 0.00 84 1024.2
20260902031737 61 290 0.0 0.0 0.00 0.00 0.00 83 1024.2
20260902031248 61 290 0.0 0.0 0.00 0.00 0.00 84 1024.2
20260902030743 61 290 0.0 0.0 0.00 0.00 0.00 84 1024.2
20260902030249 61 290 0.0 0.0 0.00 0.00 0.00 85 1024.2
20260902025751 61 290 0.0 0.0 0.00 0.00 0.00 85 1024.4
20260902025244 61 290 0.0 0.0 0.00 0.00 0.00 84 1024.4
20260902024732 62 290 0.0 0.0 0.00 0.00 0.00 82 1024.4
20260902024251 62 290 0.0 0.0 0.00 0.00 0.00 84 1024.3
20260902023740 62 290 0.0 0.0 0.00 0.00 0.00 84 1024.3
20260902023249 62 290 0.0 0.0 0.00 0.00 0.00 84 1024.3
20260902022741 61 290 0.0 0.0 0.00 0.00 0.00 84 1024.4
20260902022239 61 290 0.0 0.0 0.00 0.00 0.00 83 1024.4
20260902021750 61 290 0.0 0.0 0.00 0.00 0.00 82 1024.4
20260902021247 62 290 0.0 0.0 0.00 0.00 0.00 82 1024.3
20260902020744 62 290 0.0 0.0 0.00 0.00 0.00 82 1024.3
20260902020235 62 290 0.0 0.0 0.00 0.00 0.00 82 1024.3
20260902015747 63 290 0.0 0.0 0.00 0.00 0.00 82 1024.3
20260902015237 63 290 0.0 0.0 0.00 0.00 0.00 82 1024.3
20260902014735 63 290 0.0 0.0 0.00 0.00 0.00 82 1024.3
20260902014249 62 290 0.0 0.0 0.00 0.00 0.00 82 1024.4
20260902013748 62 290 0.0 0.0 0.00 0.00 0.00 83 1024.4
20260902013236 62 290 0.0 0.0 0.00 0.00 0.00 83 1024.4
20260902012746 62 290 0.0 0.0 0.00 0.00 0.00 84 1024.5
20260902012235 61 290 0.0 0.0 0.00 0.00 0.00 84 1024.5
20260902011733 62 290 0.0 0.0 0.00 0.00 0.00 83 1024.5
20260902011241 62 290 0.0 0.0 0.00 0.00 0.00 83 1024.4
20260902010730 62 290 0.0 0.0 0.00 0.00 0.00 83 1024.4
20260902010238 62 290 0.0 0.0 0.00 0.00 0.00 83 1024.4
20260901235242 63 290 0.0 0.0 0.00 0.00 0.00 83 1024.4
20260901234753 63 290 0.0 0.0 0.00 0.00 0.00 83 1024.4
20260901234252 63 290 0.0 0.0 0.00 0.00 0.00 82 1024.5
20260901233743 63 290 0.0 0.0 0.00 0.00 0.00 82 1024.5
20260901233253 63 290 0.0 0.0 0.00 0.00 0.00 82 1024.5
20260901232752 63 289 0.0 0.0 0.00 0.00 0.00 82 1024.4
20260901232250 63 289 0.0 0.0 0.00 0.00 0.00 82 1024.4
20260901231736 63 266 0.0 0.0 0.00 0.00 0.00 81 1024.4
20260901231243 63 252 0.0 0.0 0.00 0.00 0.00 80 1024.5
20260901230735 63 251 0.0 0.0 0.00 0.00 0.00 80 1024.5
20260901230235 63 237 0.0 0.0 0.00 0.00 0.00 80 1024.5
20260901225751 63 215 0.0 0.0 0.00 0.00 0.00 80 1024.5
20260901225240 63 214 0.0 0.0 0.00 0.00 0.00 80 1024.5
20260901224751 63 214 0.0 0.0 0.00 0.00 0.00 80 1024.5
20260901224240 63 204 0.0 0.0 0.00 0.00 0.00 80 1024.5
20260901223739 63 204 0.0 0.0 0.00 0.00 0.00 81 1024.5
20260901223246 63 205 0.0 0.0 0.00 0.00 0.00 81 1024.5
20260901222733 63 205 0.0 0.0 0.00 0.00 0.00 82 1024.6
20260901222252 63 205 0.0 0.0 0.00 0.00 0.00 81 1024.6
20260901221737 63 162 0.0 0.0 0.00 0.00 0.00 81 1024.6
20260901221250 63 160 0.0 0.0 0.00 0.00 0.00 81 1024.8
20260901220735 63 160 0.0 0.0 0.00 0.00 0.00 81 1024.8
20260901220233 63 120 0.0 0.0 0.00 0.00 0.00 81 1024.8
20260901215749 63 118 0.0 0.0 0.00 0.00 0.00 81 1024.8
20260901215241 63 118 0.0 0.0 0.00 0.00 0.00 81 1024.8
20260901214748 63 118 0.0 0.0 0.00 0.00 0.00 81 1024.8
20260901214233 63 77 0.0 0.0 0.00 0.00 0.00 80 1024.7
20260901213747 63 77 0.0 0.0 0.00 0.00 0.00 80 1024.7
20260901213253 64 77 0.0 0.0 0.00 0.00 0.00 79 1024.7
20260901212743 64 75 0.0 0.0 0.00 0.00 0.00 80 1024.7
20260901212240 64 75 0.0 0.0 0.00 0.00 0.00 80 1024.7
20260901211737 63 75 0.0 0.0 0.00 0.00 0.00 80 1024.7
20260901211235 63 75 0.0 0.0 0.00 0.00 0.00 79 1024.7
20260901210748 64 75 0.0 0.0 0.00 0.00 0.00 79 1024.7
20260901210236 64 75 0.0 0.0 0.00 0.00 0.00 79 1024.7
20260901205753 63 75 0.0 0.0 0.00 0.00 0.00 79 1024.8
20260901205247 63 75 0.0 0.0 0.00 0.00 0.00 80 1024.8
20260901204753 63 75 0.0 0.0 0.00 0.00 0.00 80 1024.8
20260901204237 63 75 0.0 0.0 0.00 0.00 0.00 80 1024.8
20260901203748 63 75 0.0 0.0 0.00 0.00 0.00 81 1024.8
20260901203257 63 75 0.0 0.0 0.00 0.00 0.00 80 1024.8
20260901202751 63 75 0.0 0.0 0.00 0.00 0.00 80 1024.6
20260901202247 63 75 0.0 0.0 0.00 0.00 0.00 80 1024.6
20260901201755 63 75 0.0 0.0 0.00 0.00 0.00 80 1024.6
20260901201249 63 75 0.0 0.0 0.00 0.00 0.00 80 1024.8
20260901200742 63 75 0.0 0.0 0.00 0.00 0.00 80 1024.8
20260901200250 63 75 0.0 0.0 0.00 0.00 0.00 80 1024.8
20260901195732 63 75 0.0 0.0 0.00 0.00 0.00 80 1024.6
20260901195248 63 75 0.0 0.0 0.00 0.00 0.00 80 1024.6
20260901194744 63 75 0.0 0.0 0.00 0.00 0.00 80 1024.6
20260901194239 63 75 0.0 0.0 0.00 0.00 0.00 80 1024.5
20260901193739 64 75 0.0 0.0 0.00 0.00 0.00 80 1024.5
20260901193236 64 75 0.0 0.0 0.00 0.00 0.00 79 1024.5
20260901192751 64 75 0.0 0.0 0.00 0.00 0.00 79 1024.4
20260901192236 64 75 0.0 0.0 0.00 0.00 0.00 79 1024.4
20260901191738 64 75 0.0 0.0 0.00 0.00 0.00 78 1024.4
20260901191252 64 75 0.0 0.0 0.00 0.00 0.00 78 1024.5
20260901190753 64 75 0.0 0.0 0.00 0.00 0.00 78 1024.5
20260901190255 64 75 0.0 0.0 0.00 0.00 0.00 78 1024.5
20260901185753 64 75 0.0 0.0 0.00 0.00 0.00 78 1024.3
20260901185243 64 75 0.0 0.0 0.00 0.00 0.00 78 1024.3